Weather in Unezhma

Russia / Arkhangel'skaya Oblast'     63°46′50″N   36°37′51″E
temp.,
°C
wind,
m/s
gust,
m/s
humid.,
%
clouds,
%
prec.,
mm/h
press.,
hPa
HPBL,
m
13 may, thu
thu1300:00+14ssw37580 0.0 1021108
03:00+13ssw38610 0.0 1020130
06:00+15ssw27560 0.0 1019169
09:00+21ssw35420 0.0 1018479
12:00+25sw35357 0.0 10171750
15:00+26ssw343012 0.0 10162557
18:00+25sw23337 0.0 10152030
21:00+19sw245966 0.0 101589
14 may, fri
fri1400:00+16s22693 0.1 101427
03:00+14s11760 0.1 101311
06:00+16se137452 0.3 1011100
09:00+20sw346274 0.5 1011728
12:00+17ssw4775100 4.3 1012607
15:00+20sw565965 4.4 10121370
18:00+19wsw36510 0.2 10121365
21:00+15ssw257024 0.2 1013105
15 may, sat
sat1500:00+12ssw377220 0.0 1013127
03:00+11sw227397 0.0 101335
06:00+12n117335 0.0 101385
09:00+15nne22615 0.0 1012409
12:00+15nne436138 0.0 1011412
15:00+11n347499 0.0 1010252
18:00+9n248082 0.0 1009170
21:00+8n238797 0.0 100692
16 may, sun
sun1600:00+6n2393100 0.1 1005100
03:00+7nnw2393100 0.1 1004109
06:00+7nnw3492100 0.0 1004187
09:00+9nw3489100 0.1 1005294
12:00+9wnw2486100 0.1 1007353
15:00+9w3689100 0.4 1010432
18:00+9wnw258562 0.1 1011431
21:00+6n11947 0.1 101218
17 may, mon
mon1700:00+5wsw019550 0.0 101411
03:00+6s119570 0.0 101510
06:00+9ssw1186100 0.0 101529
09:00+15sw356329 0.0 1016661
12:00+19sw464478 0.0 10162089
15:00+21wsw46366 0.0 10162456
18:00+20wsw354557 0.0 10161228
21:00+14sw11665 0.0 101710